Погода в Пеганове

Россия / Тюменская область     55°51′35″N   68°41′39″E
темп.,
°C
ветер,
м/с
пор.,
м/с
влажн.,
%
обл.,
%
осадки,
мм/ч
давл.,
гПа
погр.,
м
22 октября, пт
пт2223:00+1зсз71095100 0.8 1004740
02:000з6117541 0.2 1006602
05:00−1зюз511825 0.2 1007355
08:00−1ююз61377100 0.0 1008563
11:00+2ююз8136494 0.0 1007937
14:00+3ююз81279100 0.1 10071137
17:00+2юз71286100 0.1 1008788
20:00+3юз71393100 0.0 1008531
23 октября, сб
сб2323:00+4ююз71490100 0.0 1007478
02:00+5ююз81693100 0.7 1005734
05:00+6юз91582100 1.1 1004705
08:00+6юз91678100 0.0 1004645
11:00+9зюз915717 0.0 1006843
14:00+12зюз9146421 0.0 10071150
17:00+11зюз81466100 0.1 10091250
20:00+9з815670 0.0 1010747
24 октября, вс
вс2423:00+8зюз715765 0.0 1012612
02:00+7зюз714836 0.0 1013552
05:00+6зюз6138941 0.0 1015426
08:00+5юз51092100 0.0 1016281
11:00+8юз5975100 0.0 1016479
14:00+10ююз5971100 0.0 1015688
17:00+9ю61282100 0.2 1013579
20:00+11юз91667100 0.3 10101048
25 октября, пн
пн2523:00+11зюз91552100 0.3 10101045
02:00+9зюз81379100 0.1 1010844
05:00+8з71266100 0.1 1012872
08:00+5з497696 0.0 1014471
11:00+7з4566100 0.0 1016614
14:00+8зюз3454100 0.0 1016733
17:00+7ююз2359100 0.0 101585
20:00+7юв2460100 0.0 1014120
26 октября, вт
вт2623:00+7ю4888100 0.4 1012330
02:00+7ю51285100 2.2 1009668
05:00+7ююз51083100 2.8 1007546
08:00+6юз4889100 1.1 1006398
11:00+2ссз61198100 2.4 1008385
14:00+3сз71089100 0.3 1010794
17:00+1ссз711747 0.4 1013814
20:00−1ссз611715 0.0 1015654